Location: Plymouth
(43.7570°N, 71.6890°W)
Time: 04:09:08
(UTC-04:00)

Amateur Radio Satellites - All Passes

Search period start: 24 March 2017 03:39
Search period end: 25 March 2017 03:39
Location: Plymouth, 43.7570°N, 71.6890°W

Satellite Date Start Highest point End Downlink Frequencies (MHz)
Time Altitude Azimuth
Oscar 19 24 Mar 03:44:33 03:48:23 21° 298° (WNW) 03:52:13 437.125/150
ITAMSAT 1 24 Mar 03:44:44 03:49:43 44° 99° (E) 03:54:39 435.822/435.867
CUBESAT XI-V 24 Mar 03:48:24 03:52:12 26° 67° (ENE) 03:56:02 437.345
STARS 24 Mar 03:53:02 03:56:09 19° 63° (ENE) 03:59:16 437.465
BEESAT 24 Mar 03:58:44 04:02:11 20° 267° (W) 04:05:39 436.000
AO-7 24 Mar 04:06:48 04:14:52 52° 102° (ESE) 04:22:53 .
O/OREOS (USA 219) 24 Mar 04:11:42 04:15:54 35° 255° (WSW) 04:20:04 437.305
ITUPSAT 1 24 Mar 04:13:53 04:16:32 15° 270° (W) 04:19:12 437.325
MOZHAYETS 4 24 Mar 04:42:32 04:45:30 17° 269° (W) 04:48:28
KKS-1 24 Mar 04:43:15 04:47:40 62° 259° (W) 04:52:07 437.445
ISS 24 Mar 04:46:11 04:49:16 38° 220° (SW) 04:52:22 437.550
Tancredo 1 24 Mar 04:59:43 05:02:25 25° 223° (SW) 05:05:07 437.200
M-CUBED/EXP-1 PRIME 24 Mar 05:13:12 05:16:22 28° 62° (ENE) 05:19:47 437.505
ITAMSAT 1 24 Mar 05:24:42 05:28:56 26° 297° (WNW) 05:33:09 435.822/435.867
CUBESAT XI-V 24 Mar 05:25:18 05:29:27 33° 264° (W) 05:33:37 437.345
AO-85 24 Mar 05:26:39 05:29:49 23° 44° (NE) 05:33:01 145.980
STARS 24 Mar 05:27:54 05:32:09 46° 261° (W) 05:36:26 437.465
XW-2D 24 Mar 05:59:10 06:01:13 14° 91° (E) 06:03:15 145.860 - 145.880
AO-7 24 Mar 05:59:56 06:07:25 40° 301° (WNW) 06:14:54 .
DOVE 4 24 Mar 06:03:50 06:08:28 30° 94° (E) 06:13:01 437.250
XW-2B 24 Mar 06:04:46 06:07:07 16° 92° (E) 06:09:28 145.730 - 145.750
NUDT-PHONESAT 24 Mar 06:09:12 06:11:14 14° 91° (E) 06:13:15 437.300
KAITUO 1B 24 Mar 06:12:33 06:14:51 16° 92° (E) 06:17:09 145.475/437.950
XW-2C 24 Mar 06:14:23 06:17:16 21° 94° (E) 06:20:08 145.795 - 145.815
BEESAT 3 24 Mar 06:17:36 06:18:56 11° 34° (NE) 06:20:16 437.485
STRAND 1 24 Mar 06:44:05 06:48:58 44° 69° (ENE) 06:53:51 437.568
M-CUBED/EXP-1 PRIME 24 Mar 06:47:59 06:50:52 22° 261° (W) 06:53:56 437.505
CUTE-I 24 Mar 06:52:44 06:57:59 51° 100° (E) 07:03:09 437.470
YUBILEINY 24 Mar 06:58:39 07:05:38 28° 81° (E) 07:12:36 435.215
LilacSat-2 24 Mar 07:03:57 07:07:45 89° 115° (ESE) 07:11:29 437.200
CUTE 1.7 + AOD 2 24 Mar 07:06:18 07:07:08 10° 88° (E) 07:07:59 437.475
AO-85 24 Mar 07:06:38 07:10:19 38° 242° (WSW) 07:14:04 145.980
XW-2A 24 Mar 07:07:17 07:08:04 11° 90° (E) 07:08:51 145.665 - 145.685
XW-2F 24 Mar 07:07:46 07:11:32 88° 283° (WNW) 07:15:15 145.980 - 146.000
HO-68 24 Mar 07:13:21 07:18:43 22° 91° (E) 07:24:03 435.675
NO-84 24 Mar 07:23:43 07:25:51 19° 131° (SE) 07:27:59 435.350 FM
XW-2D 24 Mar 07:32:05 07:35:38 41° 288° (WNW) 07:39:09 145.860 - 145.880
XW-2B 24 Mar 07:38:00 07:41:28 36° 289° (WNW) 07:44:55 145.730 - 145.750
DOVE 4 24 Mar 07:41:16 07:46:10 39° 291° (WNW) 07:51:02 437.250
NUDT-PHONESAT 24 Mar 07:41:54 07:45:22 39° 288° (WNW) 07:48:48 437.300
KAITUO 1B 24 Mar 07:45:37 07:49:01 35° 289° (WNW) 07:52:24 145.475/437.950
XW-2C 24 Mar 07:48:15 07:51:29 28° 291° (WNW) 07:54:42 145.795 - 145.815
BEESAT 3 24 Mar 07:53:18 07:57:19 66° 54° (NE) 08:01:17 437.485
CUBEBUG 2 24 Mar 07:53:35 07:56:32 17° 91° (E) 07:59:23 437.445
BEESAT 2 24 Mar 08:02:41 08:06:28 36° 48° (NE) 08:10:13 435.950
FO-29 24 Mar 08:10:30 08:13:04 12° 50° (NE) 08:15:35 435.910
STRAND 1 24 Mar 08:24:12 08:28:19 24° 266° (W) 08:32:29 437.568
AAUSAT CUBESAT 2 24 Mar 08:30:49 08:34:27 29° 96° (E) 08:38:05 437.432
CUTE-I 24 Mar 08:33:30 08:37:40 24° 298° (WNW) 08:41:49 437.470
SEEDS 24 Mar 08:37:41 08:41:52 73° 102° (ESE) 08:46:03 437.485
XW-2A 24 Mar 08:37:50 08:41:06 44° 287° (WNW) 08:44:19 145.665 - 145.685
CUTE 1.7 + AOD 2 24 Mar 08:39:15 08:43:27 71° 285° (WNW) 08:47:38 437.475
TIGRISAT 24 Mar 08:42:47 08:45:21 15° 61° (ENE) 08:47:54 435.000
AO-73 24 Mar 08:43:08 08:46:05 18° 92° (E) 08:48:59 145.935
UNISAT 6 24 Mar 08:51:17 08:54:32 19° 64° (ENE) 08:57:47 437.425
PRISM 24 Mar 08:52:41 08:56:19 32° 69° (ENE) 08:59:59 437.425
YUBILEINY 24 Mar 08:53:01 09:01:42 67° 282° (WNW) 09:10:25 435.215
HO-68 24 Mar 08:59:55 09:07:04 73° 290° (WNW) 09:14:12 435.675
NO-84 24 Mar 09:00:34 09:03:13 35° 328° (NNW) 09:05:55 435.350 FM
UWE-3 24 Mar 09:01:11 09:05:29 54° 100° (E) 09:09:37 435.000/436.395/437.385
CUBEBUG 2 24 Mar 09:29:08 09:33:26 46° 288° (WNW) 09:37:33 437.445
BEESAT 3 24 Mar 09:32:41 09:34:22 12° 251° (WSW) 09:36:03 437.485
BEESAT 2 24 Mar 09:40:46 09:44:04 24° 246° (WSW) 09:47:20 435.950
Oscar 11 24 Mar 09:45:46 09:50:06 77° 103° (ESE) 09:54:22 .
ZACube-1 24 Mar 09:48:15 09:52:31 78° 286° (WNW) 09:56:42 437.345
FO-29 24 Mar 09:49:05 09:56:36 53° 68° (ENE) 10:03:43 435.910
PCSat 24 Mar 09:57:18 10:02:14 37° 111° (ESE) 10:07:12 145.827
AAUSAT CUBESAT 2 24 Mar 10:06:25 10:09:48 25° 292° (WNW) 10:13:11 437.432
DELFI C3 24 Mar 10:14:23 10:18:15 48° 99° (E) 10:22:06 145.870
SEEDS 24 Mar 10:15:34 10:16:59 11° 299° (WNW) 10:18:23 437.485
TIGRISAT 24 Mar 10:16:47 10:21:28 71° 258° (WSW) 10:26:09 435.000
AO-73 24 Mar 10:18:32 10:22:31 40° 289° (WNW) 10:26:24 145.935
POLYITAN 1 24 Mar 10:23:10 10:25:23 14° 62° (ENE) 10:27:36 437.675
UNISAT 6 24 Mar 10:26:16 10:30:51 52° 260° (W) 10:35:26 437.425
QB50P2 24 Mar 10:27:08 10:29:47 16° 63° (ENE) 10:32:28 145.880/145.840
PRISM 24 Mar 10:28:31 10:31:39 21° 266° (W) 10:34:49 437.425
UWE-3 24 Mar 10:38:54 10:41:28 16° 298° (WNW) 10:44:00 435.000/436.395/437.385
NO-84 24 Mar 10:40:24 10:41:29 11° 350° (N) 10:42:36 435.350 FM
DUCHIFAT 1 24 Mar 10:43:10 10:46:05 18° 64° (ENE) 10:49:00 145.980
HO-68 24 Mar 10:49:33 10:53:37 16° 310° (NW) 10:57:40 435.675
YUBILEINY 24 Mar 10:56:01 11:00:27 15° 305° (NW) 11:04:54 435.215
AIST 2D 24 Mar 11:03:16 11:06:44 53° 74° (ENE) 11:10:12 435.315
LO-87 24 Mar 11:03:56 11:06:42 20° 94° (E) 11:09:27 145.935 - 145.965
BUGSAT 1 24 Mar 11:11:08 11:13:05 13° 61° (ENE) 11:15:02 437.445
Oscar 11 24 Mar 11:24:05 11:25:36 12° 299° (WNW) 11:27:06 .
NANOSAT C BR1 24 Mar 11:26:16 11:30:26 55° 73° (ENE) 11:34:37 145.865
EO-79 24 Mar 11:29:05 11:33:18 65° 74° (ENE) 11:37:34 145.935-145.965
FO-29 24 Mar 11:34:38 11:41:43 36° 265° (W) 11:48:32 435.910
ESTCUBE 1 24 Mar 11:40:18 11:44:15 29° 96° (E) 11:48:11 437.505/2401.250
PCSat 24 Mar 11:40:38 11:45:37 36° 311° (NW) 11:50:38 145.827
RS-15 24 Mar 11:43:57 11:52:52 25° 100° (E) 12:01:57 29.354- 29.394
Oscar 19 24 Mar 11:46:47 11:49:03 13° 57° (ENE) 11:51:17 437.125/150
DELFI C3 24 Mar 11:50:21 11:52:39 15° 296° (WNW) 11:54:57 145.870
POLYITAN 1 24 Mar 11:56:24 12:00:39 63° 258° (WSW) 12:04:56 437.675
QB50P2 24 Mar 12:01:00 12:05:11 52° 260° (W) 12:09:23 145.880/145.840
50 SAT 24 Mar 12:15:21 12:16:00 10° 91° (E) 12:16:37 437.505
DUCHIFAT 1 24 Mar 12:17:21 12:21:25 44° 261° (W) 12:25:31 145.980
NO-84 24 Mar 12:18:51 12:20:10 12° 12° (NNE) 12:21:31 435.350 FM
SPROUT 24 Mar 12:31:55 12:35:37 27° 95° (E) 12:39:17 437.525
LO-87 24 Mar 12:37:01 12:40:10 27° 290° (WNW) 12:43:17 145.935 - 145.965
BUGSAT 1 24 Mar 12:43:41 12:47:53 67° 258° (WSW) 12:52:09 437.445
DX 1 24 Mar 12:50:07 12:53:26 21° 94° (E) 12:56:43 434.975-435.025
VELOX 1 24 Mar 13:03:46 13:08:14 69° 102° (ESE) 13:12:41 145.980
NANOSAT C BR1 24 Mar 13:04:15 13:06:29 14° 270° (W) 13:08:44 145.865
EO-79 24 Mar 13:07:51 13:09:30 12° 271° (W) 13:11:09 145.935-145.965
Gurwin Techsat 1B 24 Mar 13:16:35 13:21:38 46° 70° (ENE) 13:26:43 435.225
ESTCUBE 1 24 Mar 13:17:06 13:20:59 29° 293° (WNW) 13:24:50 437.505/2401.250
AO-7 24 Mar 13:18:04 13:23:40 20° 48° (NE) 13:29:13 .
Oscar 19 24 Mar 13:22:28 13:27:35 88° 76° (ENE) 13:32:44 437.125/150
ITAMSAT 1 24 Mar 13:28:36 13:30:26 12° 55° (NE) 13:32:17 435.822/435.867
UKube-1 24 Mar 13:34:48 13:38:56 42° 99° (E) 13:43:03 .
50 SAT 24 Mar 13:45:55 13:49:20 49° 287° (WNW) 13:52:43 437.505
RS-15 24 Mar 13:51:35 14:03:38 88° 122° (ESE) 14:16:07 29.354- 29.394
NO-84 24 Mar 13:55:28 13:58:25 36° 32° (NNE) 14:01:36 435.350 FM
SPROUT 24 Mar 14:07:48 14:11:28 28° 292° (WNW) 14:15:07 437.525
BEESAT 24 Mar 14:21:10 14:22:03 10° 88° (E) 14:22:55 436.000
DX 1 24 Mar 14:25:39 14:29:44 39° 290° (WNW) 14:33:49 434.975-435.025
ITUPSAT 1 24 Mar 14:34:08 14:36:47 15° 90° (E) 14:39:24 437.325
VELOX 1 24 Mar 14:41:53 14:44:08 14° 299° (WNW) 14:46:23 145.980
Gurwin Techsat 1B 24 Mar 14:57:32 15:01:48 24° 267° (W) 15:06:05 435.225
MOZHAYETS 4 24 Mar 14:59:51 15:00:53 11° 88° (E) 15:01:55
ITAMSAT 1 24 Mar 15:03:48 15:09:01 78° 74° (ENE) 15:14:17 435.822/435.867
Oscar 19 24 Mar 15:06:00 15:07:36 11° 272° (W) 15:09:11 437.125/150
AO-7 24 Mar 15:06:51 15:15:10 78° 68° (ENE) 15:23:29 .
UKube-1 24 Mar 15:11:32 15:14:39 20° 296° (WNW) 15:17:46 .
NO-84 24 Mar 15:33:03 15:35:56 27° 227° (SW) 15:39:01 435.350 FM
SO-50 24 Mar 15:39:45 15:44:22 69° 122° (ESE) 15:48:57 436.795
BEESAT 24 Mar 15:55:41 16:00:28 86° 285° (WNW) 16:05:13 436.000
RS-15 24 Mar 16:06:43 16:17:52 38° 330° (NNW) 16:29:12 29.354- 29.394
ITUPSAT 1 24 Mar 16:10:19 16:15:02 64° 287° (WNW) 16:19:44 437.325
KKS-1 24 Mar 16:33:20 16:36:53 22° 94° (E) 16:40:24 437.445
MOZHAYETS 4 24 Mar 16:34:02 16:38:36 79° 285° (WNW) 16:43:09
CUTE-I 24 Mar 16:38:59 16:41:51 15° 57° (ENE) 16:44:43 437.470
ITAMSAT 1 24 Mar 16:46:26 16:49:04 14° 271° (W) 16:51:43 435.822/435.867
O/OREOS (USA 219) 24 Mar 16:46:41 16:50:10 22° 102° (ESE) 16:53:42 437.305
XW-2B 24 Mar 16:49:05 16:49:56 11° 62° (ENE) 16:50:48 145.730 - 145.750
KAITUO 1B 24 Mar 16:56:08 16:56:29 10° 62° (ENE) 16:56:50 145.475/437.950
XW-2C 24 Mar 16:57:56 16:59:55 14° 64° (ENE) 17:01:53 145.795 - 145.815
AO-7 24 Mar 17:02:19 17:08:42 24° 268° (W) 17:15:08 .
PCSat 24 Mar 17:02:30 17:03:39 11° 29° (NNE) 17:04:48 145.827
YUBILEINY 24 Mar 17:06:58 17:11:23 15° 55° (NE) 17:15:47 435.215
DOVE 4 24 Mar 17:10:31 17:14:34 30° 67° (ENE) 17:18:52 437.250
STARS 24 Mar 17:16:01 17:19:49 28° 96° (E) 17:23:37 437.465
CUBESAT XI-V 24 Mar 17:19:44 17:24:16 53° 99° (E) 17:28:50 437.345
SO-50 24 Mar 17:21:51 17:25:17 20° 321° (NW) 17:28:42 436.795
BEESAT 24 Mar 17:36:00 17:37:28 11° 303° (WNW) 17:38:55 436.000
HO-68 24 Mar 17:44:29 17:49:30 21° 54° (NE) 17:54:32 435.675
LilacSat-2 24 Mar 17:46:41 17:50:25 50° 74° (ENE) 17:54:08 437.200
XW-2F 24 Mar 17:49:36 17:53:16 50° 74° (ENE) 17:56:57 145.980 - 146.000
KKS-1 24 Mar 18:09:23 18:13:32 37° 291° (WNW) 18:17:39 437.445
XW-2D 24 Mar 18:13:54 18:17:43 76° 259° (W) 18:21:32 145.860 - 145.880
CUTE-I 24 Mar 18:15:45 18:21:08 88° 254° (WSW) 18:26:34 437.470
XW-2B 24 Mar 18:19:49 18:23:36 66° 259° (W) 18:27:24 145.730 - 145.750
NUDT-PHONESAT 24 Mar 18:21:50 18:25:36 77° 258° (WSW) 18:29:21 437.300
M-CUBED/EXP-1 PRIME 24 Mar 18:24:14 18:27:46 21° 98° (E) 18:31:19 437.505
RS-15 24 Mar 18:25:03 18:35:09 28° 4° (N) 18:45:08 29.354- 29.394
O/OREOS (USA 219) 24 Mar 18:25:04 18:29:19 39° 300° (WNW) 18:33:38 437.305
KAITUO 1B 24 Mar 18:26:13 18:29:57 68° 258° (WSW) 18:33:42 145.475/437.950
XW-2C 24 Mar 18:30:01 18:33:43 48° 261° (W) 18:37:25 145.795 - 145.815
PCSat 24 Mar 18:43:25 18:48:35 42° 51° (NE) 18:53:42 145.827
DOVE 4 24 Mar 18:48:06 18:52:12 31° 266° (W) 18:56:33 437.250
STARS 24 Mar 18:52:16 18:56:08 30° 293° (WNW) 18:59:58 437.465
CUBEBUG 2 24 Mar 18:52:30 18:55:53 20° 64° (ENE) 18:59:16 437.445
STRAND 1 24 Mar 18:54:59 18:57:20 13° 89° (E) 18:59:41 437.568
CUBESAT XI-V 24 Mar 18:58:07 19:01:15 18° 297° (WNW) 19:04:23 437.345
YUBILEINY 24 Mar 19:01:27 19:10:08 67° 78° (ENE) 19:18:47 435.215
XW-2A 24 Mar 19:09:51 19:13:16 68° 77° (ENE) 19:16:44 145.665 - 145.685
ZACube-1 24 Mar 19:12:02 19:13:23 11° 60° (ENE) 19:14:44 437.345
AAUSAT CUBESAT 2 24 Mar 19:22:22 19:25:37 23° 67° (ENE) 19:28:54 437.432
LilacSat-2 24 Mar 19:23:22 19:24:59 12° 270° (W) 19:26:36 437.200
XW-2F 24 Mar 19:26:10 19:27:42 12° 270° (W) 19:29:15 145.980 - 146.000
HO-68 24 Mar 19:29:12 19:36:22 86° 254° (WSW) 19:43:34 435.675
SEEDS 24 Mar 19:30:14 19:34:18 57° 74° (ENE) 19:38:24 437.485
CUTE 1.7 + AOD 2 24 Mar 19:32:38 19:36:52 87° 264° (W) 19:41:06 437.475
AO-73 24 Mar 19:39:41 19:42:53 19° 65° (ENE) 19:46:04 145.935
M-CUBED/EXP-1 PRIME 24 Mar 19:57:56 20:02:20 46° 294° (WNW) 20:06:48 437.505
UWE-3 24 Mar 19:58:35 20:03:08 53° 72° (ENE) 20:07:38 435.000/436.395/437.385
CUTE-I 24 Mar 20:00:12 20:01:56 11° 273° (W) 20:03:41 437.470
PCSat 24 Mar 20:27:05 20:31:50 32° 250° (WSW) 20:36:34 145.827
CUBEBUG 2 24 Mar 20:27:29 20:32:07 51° 261° (W) 20:36:45 437.445
STRAND 1 24 Mar 20:31:59 20:37:07 78° 286° (WNW) 20:42:12 437.568
RS-15 24 Mar 20:40:05 20:51:52 46° 37° (NE) 21:03:14 29.354- 29.394
Oscar 11 24 Mar 20:41:21 20:45:38 67° 75° (ENE) 20:49:56 .
ZACube-1 24 Mar 20:44:24 20:48:59 88° 256° (WSW) 20:53:31 437.345
AAUSAT CUBESAT 2 24 Mar 20:57:19 21:00:57 30° 264° (W) 21:04:36 437.432
YUBILEINY 24 Mar 20:59:16 21:06:11 28° 279° (W) 21:13:07 435.215
DELFI C3 24 Mar 21:01:06 21:04:35 32° 70° (ENE) 21:08:06 145.870
SEEDS 24 Mar 21:08:30 21:10:22 13° 270° (W) 21:12:13 437.485
AO-73 24 Mar 21:14:24 21:18:47 47° 261° (W) 21:23:08 145.935
HO-68 24 Mar 21:20:59 21:25:03 16° 272° (W) 21:29:09 435.675
AO-85 24 Mar 21:21:43 21:25:55 43° 119° (ESE) 21:29:53 145.980
ISS 24 Mar 21:26:42 21:29:36 30° 138° (SE) 21:32:31 437.550
Tancredo 1 24 Mar 21:36:25 21:39:24 41° 141° (SE) 21:42:26 437.200
UWE-3 24 Mar 21:36:47 21:39:51 17° 269° (W) 21:42:55 435.000/436.395/437.385
LO-87 24 Mar 21:43:08 21:44:12 11° 63° (ENE) 21:45:15 145.935 - 145.965
PRISM 24 Mar 22:07:17 22:11:17 43° 99° (E) 22:15:15 437.425
TIGRISAT 24 Mar 22:07:51 22:11:17 22° 93° (E) 22:14:38 435.000
STRAND 1 24 Mar 22:13:48 22:15:25 11° 304° (NW) 22:17:02 437.568
UNISAT 6 24 Mar 22:17:02 22:20:55 29° 95° (E) 22:24:42 437.425
Oscar 11 24 Mar 22:20:41 22:22:13 12° 271° (W) 22:23:45 .
SO-50 24 Mar 22:30:30 22:33:17 16° 35° (NE) 22:36:02 436.795
DELFI C3 24 Mar 22:36:32 22:39:26 20° 267° (W) 22:42:22 145.870
ESTCUBE 1 24 Mar 22:40:58 22:44:56 32° 68° (ENE) 22:48:53 437.505/2401.250
FO-29 24 Mar 22:43:37 22:49:09 34° 94° (E) 22:54:07 435.910
RS-15 24 Mar 22:53:03 23:05:12 69° 244° (WSW) 23:16:46 29.354- 29.394
ISS 24 Mar 23:02:52 23:06:00 42° 336° (NNW) 23:09:09 437.550
AO-85 24 Mar 23:02:58 23:06:27 24° 315° (NW) 23:09:48 145.980
Tancredo 1 24 Mar 23:12:40 23:15:36 33° 339° (NNW) 23:18:34 437.200
LO-87 24 Mar 23:13:38 23:17:09 55° 259° (W) 23:20:44 145.935 - 145.965
BEESAT 3 24 Mar 23:21:15 23:25:09 76° 123° (ESE) 23:29:09 437.485
SPROUT 24 Mar 23:26:31 23:30:04 25° 67° (ENE) 23:33:38 437.525
BEESAT 2 24 Mar 23:32:29 23:36:10 39° 117° (ESE) 23:39:56 435.950
POLYITAN 1 24 Mar 23:40:44 23:43:46 19° 93° (E) 23:46:45 437.675
PRISM 24 Mar 23:43:25 23:46:14 18° 296° (WNW) 23:49:03 437.425
TIGRISAT 24 Mar 23:44:00 23:48:06 37° 290° (WNW) 23:52:05 435.000
QB50P2 24 Mar 23:45:00 23:48:21 22° 94° (E) 23:51:41 145.880/145.840
DX 1 24 Mar 23:46:56 23:50:16 22° 65° (ENE) 23:53:36 434.975-435.025
UNISAT 6 24 Mar 23:53:46 23:57:33 28° 293° (WNW) 00:01:16 437.425
AIST 2D 25 Mar 00:00:14 00:03:40 54° 100° (E) 00:07:04 435.315
DUCHIFAT 1 25 Mar 00:00:15 00:03:45 25° 95° (E) 00:07:13 145.980
VELOX 1 25 Mar 00:01:55 00:06:17 71° 73° (ENE) 00:10:43 145.980
SO-50 25 Mar 00:09:53 00:14:25 86° 57° (ENE) 00:18:55 436.795
ESTCUBE 1 25 Mar 00:17:59 00:21:43 26° 265° (W) 00:25:30 437.505/2401.250
50 SAT 25 Mar 00:20:16 00:23:41 71° 75° (ENE) 00:27:08 437.505
BUGSAT 1 25 Mar 00:25:18 00:27:55 16° 91° (E) 00:30:29 437.445
FO-29 25 Mar 00:28:38 00:34:16 37° 296° (WNW) 00:39:20 435.910
UKube-1 25 Mar 00:30:15 00:34:18 42° 70° (ENE) 00:38:24 .
ISS 25 Mar 00:40:31 00:43:04 20° 356° (N) 00:45:38 437.550
NANOSAT C BR1 25 Mar 00:44:41 00:48:57 86° 102° (ESE) 00:53:09 145.865
EO-79 25 Mar 00:47:59 00:52:15 80° 284° (WNW) 00:56:28 145.935-145.965
Tancredo 1 25 Mar 00:49:59 00:52:24 19° 359° (N) 00:54:50 437.200
BEESAT 3 25 Mar 01:00:53 01:03:16 15° 322° (NW) 01:05:40 437.485
SPROUT 25 Mar 01:02:02 01:05:51 31° 264° (W) 01:09:43 437.525
RS-15 25 Mar 01:08:50 01:15:07 16° 266° (W) 01:21:18 29.354- 29.394
BEESAT 2 25 Mar 01:10:49 01:14:04 24° 316° (NW) 01:17:23 435.950
POLYITAN 1 25 Mar 01:15:44 01:19:43 40° 289° (WNW) 01:23:39 437.675
QB50P2 25 Mar 01:20:22 01:24:13 33° 291° (WNW) 01:28:00 145.880/145.840
DX 1 25 Mar 01:22:11 01:26:13 38° 262° (W) 01:30:18 434.975-435.025
BEESAT 25 Mar 01:27:41 01:30:36 16° 61° (ENE) 01:33:31 436.000
Gurwin Techsat 1B 25 Mar 01:32:35 01:35:50 16° 90° (E) 01:39:04 435.225
Oscar 19 25 Mar 01:33:02 01:37:28 28° 95° (E) 01:41:52 437.125/150
DUCHIFAT 1 25 Mar 01:35:44 01:39:24 30° 292° (WNW) 01:43:04 145.980
AIST 2D 25 Mar 01:35:47 01:36:25 10° 297° (WNW) 01:37:03 435.315
VELOX 1 25 Mar 01:41:44 01:43:13 11° 271° (W) 01:44:44 145.980
ITUPSAT 1 25 Mar 01:41:47 01:45:22 21° 63° (ENE) 01:48:57 437.325
SO-50 25 Mar 01:52:58 01:54:10 11° 253° (WSW) 01:55:21 436.795
BUGSAT 1 25 Mar 01:59:29 02:03:31 46° 289° (WNW) 02:07:29 437.445
MOZHAYETS 4 25 Mar 02:02:30 02:04:47 14° 61° (ENE) 02:07:04
UKube-1 25 Mar 02:07:31 02:10:31 18° 267° (W) 02:13:33 .
ISS 25 Mar 02:17:23 02:20:16 27° 16° (NNE) 02:23:11 437.550
NANOSAT C BR1 25 Mar 02:23:28 02:23:58 10° 301° (WNW) 02:24:28 145.865
Tancredo 1 25 Mar 02:26:20 02:29:15 30° 19° (NNE) 02:32:09 437.200
O/OREOS (USA 219) 25 Mar 02:54:09 02:58:42 54° 63° (ENE) 03:03:13 437.305
BEESAT 25 Mar 03:03:07 03:07:51 65° 258° (WSW) 03:12:38 436.000
AO-7 25 Mar 03:08:08 03:14:17 22° 92° (E) 03:20:24 .
Gurwin Techsat 1B 25 Mar 03:10:58 03:16:17 69° 287° (WNW) 03:21:33 435.225
Oscar 19 25 Mar 03:12:05 03:16:51 39° 292° (WNW) 03:21:37 437.125/150
ITAMSAT 1 25 Mar 03:15:58 03:20:10 24° 94° (E) 03:24:19 435.822/435.867
ITUPSAT 1 25 Mar 03:18:15 03:22:52 47° 260° (W) 03:27:30 437.325
